Regional Weather Roundup
Issued by NWS Raleigh/Durham, NC

Home | Current Version | Previous Version | Text Only | Print | Product List | Glossary On
Versions: 1 2 3 4 5 6 7 8 9 10 11 12 13 14 15 16 17 18 19 20 21 22 23 24 25 26 27 28 29 30 31 32 33 34 35 36 37 38 39 40 41 42 43 44 45 46 47 48
000
ASUS42 KRAH 131310
RWRRAH
NORTH CAROLINA WEATHER ROUNDUP
NATIONAL WEATHER SERVICE RALEIGH NC
800 AM EST SAT FEB 13 2016

NOTE: "FAIR" INDICATES FEW OR NO CLOUDS BELOW 12,000 FEET WITH NO
SIGNIFICANT WEATHER AND/OR OBSTRUCTIONS TO VISIBILITY.

NCZ001-053-055-056-065-067-131400-
WESTERN NORTH CAROLINA

CITY           SKY/WX    TMP DP  RH WIND       PRES   REMARKS
ASHEVILLE      CLOUDY    20   7  57 N22G36    30.18R WCI   3
JEFFERSON      CLOUDY    12   1  61 NW28G44   30.02R WCI  -9
MORGANTON      CLEAR     26   5  42 W14G21    30.25R WCI  14
HICKORY        CLEAR     26   6  42 NW3       30.20R
RUTHERFORDTON  CLOUDY    28   7  41 CALM      30.22R
MOUNT AIRY     PTCLDY    23   1  39 NW14G25   30.24R WCI  11
BOONE          CLOUDY    13   1  60 NW36G55   30.01R WCI -10
$$

NCZ021-022-025-041-071-084-088-131400-
CENTRAL NORTH CAROLINA

CITY           SKY/WX    TMP DP  RH WIND       PRES   REMARKS
CHARLOTTE      PTCLDY    30  11  45 N10       30.23R WCI  21
GREENSBORO     PTCLDY    26   4  38 N14G22    30.22R WCI  14
WINSTON-SALEM  CLEAR     25   1  35 NW13      30.24R WCI  14
RALEIGH-DURHAM PTCLDY    29   8  41 VRB5      30.24R WCI  24
FORT BRAGG     CLEAR     29  18  62 NW5       30.21R WCI  24
FAYETTEVILLE   CLEAR     30  21  69 N8        30.22R WCI  22
BURLINGTON     CLEAR     27   3  35 NW17G28   30.23R WCI  14
LAURINBURG     CLEAR     28  22  78 N6        30.24R WCI  22
$$

NCZ011-015-027-028-043-044-047-080-103-131400-
NORTHEASTERN NORTH CAROLINA

CITY           SKY/WX    TMP DP  RH WIND       PRES   REMARKS
ROCKY MT-WILSO SUNNY     29  11  47 NW16G28   30.22R WCI  17
GREENVILLE     SUNNY     30  21  69 NW5       30.20R WCI  25
WASHINGTON     SUNNY     28  19  67 NW3       30.19R
ELIZABETH CITY MOSUNNY   27  20  75 NW18G26   30.18R WCI  14
MANTEO         NOT AVBL
CAPE HATTERAS  SUNNY     33  25  72 NW9       30.15R WCI  25
$$

NCZ078-087-090-091-093-098-101-131400-
SOUTHEASTERN NORTH CAROLINA

CITY           SKY/WX    TMP DP  RH WIND       PRES   REMARKS
LUMBERTON      CLEAR     31  24  75 N6        30.23R WCI  25
GOLDSBORO      SUNNY     32  21  64 NW9       30.19R WCI  24
KINSTON        SUNNY     28  25  86 N6        30.22R WCI  22
KENANSVILLE    SUNNY     29  25  86 CALM      30.22R
NEW BERN       SUNNY     31  23  72 NW8       30.21R WCI  23
CHERRY POINT   SUNNY     33  21  61 N23G29    30.20R WCI  21
BEAUFORT       SUNNY     33  24  69 N18       30.18R WCI  22
JACKSONVILLE   SUNNY     31  25  78 NW9       30.20R WCI  23
WILMINGTON     SUNNY     32  28  85 W3        30.22R FOG
$$




USA.gov is the U.S. government's official web portal to all federal, state and local government web resources and services.